DW6451 Weather Reports


time (UTC)temp
C
wind
direction
speed
KPH
gust
KPH
rain 1hr
cm
rain 24hr
cm
rain mn
cm
humidity
%
barometer
mb
20260504000034 18 298 3.2 8.0 0.00 0.00 0.00 32 1001.4
20260503234534 18 267 1.6 12.9 0.00 0.00 0.00 32 1001.6
20260503233029 18 327 0.0 12.9 0.00 0.00 0.00 32 1001.8
20260503231542 18 325 3.2 8.0 0.00 0.00 0.00 33 1001.9
20260503230027 18 341 3.2 14.5 0.00 0.00 0.00 32 1002.1
20260503224526 18 275 4.8 12.9 0.00 0.00 0.00 30 1002.0
20260503223027 18 332 3.2 14.5 0.00 0.00 0.00 30 1002.1
20260503221525 19 317 1.6 16.1 0.00 0.00 0.00 29 1002.0
20260503220033 19 252 3.2 19.3 0.00 0.00 0.00 27 1002.0
20260503214522 18 233 4.8 12.9 0.00 0.00 0.00 26 1002.1
20260503213024 18 302 3.2 12.9 0.00 0.00 0.00 29 1002.2
20260503211522 18 326 3.2 14.5 0.00 0.00 0.00 28 1002.4
20260503210019 18 22 6.4 12.9 0.00 0.00 0.00 28 1002.5
20260503204518 18 350 3.2 16.1 0.00 0.00 0.00 27 1002.5
20260503203022 19 302 4.8 16.1 0.00 0.00 0.00 28 1002.5
20260503201515 19 300 6.4 12.9 0.00 0.00 0.00 26 1002.7
20260503200013 19 317 6.4 14.5 0.00 0.00 0.00 23 1002.8
20260503194520 19 316 6.4 12.9 0.00 0.00 0.00 27 1002.8
20260503193012 19 346 4.8 17.7 0.00 0.00 0.00 26 1002.8
20260503191510 19 315 4.8 12.9 0.00 0.00 0.00 31 1002.8
20260503190008 19 279 6.4 16.1 0.00 0.00 0.00 32 1002.9
20260503184508 19 329 6.4 14.5 0.00 0.00 0.00 35 1003.0
20260503183006 18 317 8.0 14.5 0.00 0.00 0.00 35 1003.1
20260503181506 18 320 4.8 16.1 0.00 0.00 0.00 39 1003.2
20260503180014 18 69 6.4 17.7 0.00 0.00 0.00 41 1003.4
20260503174510 18 342 4.8 17.7 0.00 0.00 0.00 43 1003.3
20260503173002 18 355 4.8 17.7 0.00 0.00 0.00 44 1003.5
20260503171500 18 327 6.4 17.7 0.00 0.00 0.00 43 1003.5
20260503081504 10 212 0.0 0.0 0.00 0.00 0.00 76 1004.0
20260503071611 11 249 0.0 4.8 0.00 0.00 0.00 73 1004.8
20260503070113 11 249 0.0 3.2 0.00 0.00 0.00 72 1005.0
20260503054555 11 295 1.6 6.4 0.00 0.00 0.00 66 1006.2
20260503053043 11 19 0.0 6.4 0.00 0.00 0.00 63 1006.1
20260503051547 10 24 0.0 4.8 0.00 0.00 0.00 63 1006.0
20260503050035 9 24 0.0 1.6 0.00 0.00 0.00 64 1006.0
20260503044535 9 24 0.0 1.6 0.00 0.00 0.00 66 1006.0
20260503043034 8 24 0.0 1.6 0.00 0.00 0.00 66 1005.9
20260503041534 8 24 0.0 0.0 0.00 0.00 0.00 66 1005.8
20260503040034 8 24 0.0 0.0 0.00 0.00 0.00 67 1005.9
20260503034531 8 24 0.0 1.6 0.00 0.00 0.00 65 1006.0
20260503033030 8 24 0.0 1.6 0.00 0.00 0.00 65 1006.2
20260503031532 8 24 0.0 1.6 0.00 0.00 0.00 68 1006.4
20260503030030 8 24 0.0 3.2 0.00 0.00 0.00 69 1006.5
20260503024532 8 24 0.0 0.0 0.00 0.00 0.00 68 1006.7
20260503023024 8 24 0.0 1.6 0.00 0.00 0.00 67 1006.8
20260503021522 8 24 0.0 0.0 0.00 0.00 0.00 65 1006.9
20260503020022 8 24 0.0 0.0 0.00 0.00 0.00 65 1006.9
20260503014520 8 24 0.0 0.0 0.00 0.00 0.00 64 1007.2
20260503013029 8 24 0.0 0.0 0.00 0.00 0.00 62 1007.2
20260503011514 8 24 0.0 0.0 0.00 0.00 0.00 62 1007.3
20260503010014 9 24 0.0 1.6 0.00 0.00 0.00 63 1007.4
20260503004512 10 24 1.6 4.8 0.00 0.00 0.00 65 1007.6
20260503003014 10 24 0.0 1.6 0.00 0.00 0.00 63 1007.6
20260503001509 10 25 0.0 4.8 0.00 0.00 0.00 65 1007.7